Powrót do katalogu

IRIDIUM 33 DEB

LostPO
NORAD 35747·DEBRIS·🇺🇸 United States

Wystrzelony Sep 14, 1997 z Baikonur Cosmodrome

Loading…

Następne Przeloty (najbliższe 24 godziny)

TLE

NieaktualneSource: Space-Track

Epoka: Nov 20, 2023, 06:31 UTC

1 35747U 97051SA  23324.27169462  .00012009  00000-0  46652-2 0  9996
2 35747  86.1318 333.6335 0144007 251.9276 106.6182 14.24250867737199

Śledź IRIDIUM 33 DEB w czasie rzeczywistym z AllMySat

Download on the App Store